sat.trackr.live / text

‹ back to catalog

STARLINK-6237

NORAD 57055 · 2023-088H

PAYLOAD ACTIVE UNKNOWN

§ Identity

Operator
Country
US
Launch date
2023-06-22
Launch site
AFWTR
Launch vehicle
Mass (kg)
RCS (m²)

Purposes: comms

External: N2YO · Heavens-Above · Gunter

§ Orbital elements

Epoch: 2026-05-24T23:44:03.331680Z

Period
94.27 min
Inclination
43.0047°
Eccentricity
0.0001286
Mean motion
15.27568318 rev/d
Perigee alt
482.2 km
Apogee alt
484.0 km
Semi-major
6,861.2 km
B*
-1.1319e-5
RAAN
39.5699°
Arg perigee
266.0517°
Mean anomaly
94.0187°
Rev number
16,200

§ Raw data

STARLINK-62371 57055U 23088H   26144.98892745 -.00000573  00000+0 -11319-4 0  99972 57055  43.0047  39.5699 0001286 266.0517  94.0187 15.27568318162001

JSON: /api/v1/satellites/57055 · /tle

For live sub-satellite position, see the globe view (requires WebGL).

§ Visibility from observer

Set your observer location to see the next 7 days of passes ≥ 10°. The values pass through the URL so the page stays shareable.

No JS? Fill the form by hand. The geolocation button needs JavaScript.